AQI (37)

Current Conditions for Foresthill, CA. Clear skies, Dry   
Visibility: 10 miles
Space WX Alerts: ALERT:  Geomagnetic K-index of 4 ( Latest Alert ) - Issue Time: 2018 Jun 23 2308 UTC

  Summary / Temperature 

Current Temperature
72.9°F
22.7°C
(24/hr Ago)
69.7°F
(Apparent temp)
72.7°F
Comfortable
Heat Index
73.4°F 

75.6°F/ 24.2°C
Little or no discomfort

 Temp Rate:

 24/hr Difference:

 Avg Running Temp:

 Todays High:

 Todays Low:

 Y-days High:

 Y-days Low:

 Todays HeatIdx:

 Y-days HeatIdx:

 Evapotranspiration:

-0.4°F/hr 

+3.2°F

73.6°F

73.9°F 12:00am

72.9°F 2:05am

87.5°F 4:14pm

65.8°F 6:24am

74.5°F 12:00am

85.6°F 5:19pm

0.004 in

115' Above Ground

 Temperature:

 6'AGL VRS 115'AGL:

 Avg Running Temp:

 Humidity:

 Todays High:

 Todays Low:

 Y-days High:

 Y-days Low:

77.0°F 

+4.1°F

76.9°F

39% 

77.0°F 12:00am

76.0°F 12:22am

89.0°F 5:21pm

70.0°F 6:15am

Temp & Humidity Graphs

  Wind 

Wind Speed

 Calm

Gusting to

 8.0 mph

Wind from ESE

103°  ESE

Calm

 Avg speed:

 Wind Run:

 Peak Gust:

  1.0 mph 

8.0 miles

  13.0 mph 12:47am

  Almanac  

Moon age: 11 days,5 hours,55 minutes,87%

Waxing Gibbous
87%
Illuminated
11 days in cycle

 Moonrise:

 Moonset:

 Sunrise:

 Sunset:

 Solar Noon:

5:28pm

3:27am

5:38am

8:33pm

1:06pm

0min 8s less daylight tomorrow 

  Solar Radiation 

(Current Solar)
  No Sun Light
(Todays High)
 None@12:00am

Rain

 Rain Today:

 Rain Rate (/hr):

 Rain last hour:

 Rain Yesterday:

 This Month:

 Season Total:

29 Days Since Last Rain Day

0.00 in

0.000 in

0.00 in

0.00 in

0.00 in

42.44 in

Updated Time

Updated: 6/24/18  2:05am

(Updated  sec ago)

Humidity & Barometer

 Humidity:

 Wetbulb:

 Dew Point:

 Barometer:

46% 

60.6°F 

50.9°F 

29.715 inHg 

 Baro Trend:  Steady 
Northern Calif
Preparedness
Fire 
Level 

    UV Index  

(Current UV)
0.0  None
(Todays High) @ 12:00am
0.0   None

National Weather Service Forecast

Overnight

Overnight: Clear
Clear
Sunday

Sunday: Sunny
Sunny
Sunday
Night
Sunday Night: Clear
Clear
Monday

Monday: Sunny
Sunny
Monday
Night
Monday Night: Clear
Clear
Tuesday

Tuesday: Sunny
Sunny
Lo 69 °F Hi 93 °F Lo 66 °F Hi 88 °F Lo 65 °F Hi 90 °F

Foresthill Probe 2 Stats  
Foresthill Probe 2: is located on Thomas Street
at 3000 feet. The main Foresthill Weather site
is located on Melody ln at the 2860 foot elevation

Calm
71.5°F
21.9°C
Temp Rate:
-0.8°F
Calm
Gusting to
2.0 mph
(Humidity)
52%
Wind from SE
131°  SE
Updated: 24/06/18 - 02:01:59
 Todays High: 73.2°F 00:07
 Todays Low: 71.5°F 01:56
 Rain Today: 0.00 in
 Season Total: 44.79 in

Foresthill Wx: Monthly,Yearly, Highs and Lows 

Foresthill  
This Weather Data is coming from the main Foresthill
Weather site located on Melody ln at the 2860 foot
elevation
Not Foresthill Probe 2
Weather Data
Month
  High
Month
  Low
Year
High
Year
Low
Temp 87.5°F
6/23/18
46.3°F
6/1/18
87.5°F
6/23/18
21.9°F
2/23/18
Humidity 86%
6/17/18
16%
6/21/18
100%
1/8/18
15%
2/10/18
Heat Index 85.6°F
6/23/18
48.2°F
6/1/18
85.6°F
6/23/18
27.1°F
2/20/18
Wind Chill 87.5°F
6/23/18
44.3°F
6/10/18
87.5°F
6/23/18
9.2°F
2/23/18
Wind Gust 22 mph
6/15/18
0 mph
6/1/18
43 mph
3/1/18
0 mph
1/1/18
Barometer 30.11 in
6/1/18
29.60 in
6/16/18
30.55 in
1/27/18
29.60 in
6/16/18
ET 0.24 in
6/22/18
0.00 in
6/1/18
0.24 in
6/22/18
0.00 in
1/1/18
Dew Point 59.6°F
6/23/18
27.9°F
6/10/18
59.6°F
6/23/18
7.6°F
2/11/18
Pacific Satellite US Radar Satellite Imagery Sacramento,CA.  (click to enlarge)
NWS Weather Forecast - Summary
Updated: Saturday, June 23, 2018 - 2:31pm PDT
Red Flag Warning for Gusty Wind and Low Humidity for the Sacramento and Northern San Joaquin Valleys and Adjacent Foothills Today into Sunday
Current Interstate Highway Conditions for I-80 & US-50

[I 80: IN THE SAN FRANCISCO BAY AREA - SOLANO CO]
no traffic restrictions are reported for this area.

[I 80: IN THE NORTHERN CALIFORNIA AREA & SIERRA NEVADA]
no traffic restrictions are reported for this area.

[US 50: IN THE SACRAMENTO VALLEY & THE LAKE TAHOE BASIN]
no traffic restrictions are reported for this area.
NWS Weather Forecast: Overnight and Sunday (Updated: Sat, 23-Jun-2018 1:53pm PDT)
Overnight

Overnight: Clear
Clear

Lo 69 °F
NWS forecast: Clear, with a low around 69. East northeast wind 3 to 9 mph.
Sunday

Sunday: Sunny
Sunny

Hi 93 °F
NWS forecast: Sunny, with a high near 93. Southwest wind 2 to 9 mph.
YR.NO 10 Day Weather forecast
Last update: 06/23/2018 @ 12:41
Next update: 06/24/2018 @ 01:00
Provided by: 22
      Temperature Precipitation Pressure Wind  
Today
06/24/2018
00:00 06:00 66°F   29.72 inHg Light breeze from east-northeast 5 mph
  06:00 12:00 73°F   29.73 inHg Gentle breeze from east-northeast 10 mph
  12:00 18:00 91°F   29.77 inHg Light breeze from west-southwest 7 mph
  18:00 00:00 86°F   29.78 inHg Gentle breeze from south-southwest 8 mph
    (Click to enlarge)
meteogram

    Forecast for next 9 days

      Temperature Precip Pressure Wind  
Monday
06/25/2018
00:00 06:00 64°F   29.85 inHg Light breeze from east-southeast 4 mph
  06:00 12:00 57°F   29.86 inHg Light air from east-southeast 3 mph
  12:00 18:00 81°F   29.92 inHg Gentle breeze from south-southwest 8 mph
  18:00 00:00 82°F   29.86 inHg Light breeze from south-southwest 6 mph
      Temperature Precip Pressure Wind  
Tuesday
06/26/2018
00:00 06:00 63°F   29.88 inHg Light breeze from east 4 mph
  05:00 11:00 57°F   29.86 inHg Light breeze from east-northeast 6 mph
  11:00 17:00 86°F   29.88 inHg Light breeze from southwest 7 mph
  17:00 23:00 88°F   29.83 inHg Light breeze from southwest 7 mph
  23:00 05:00 66°F   29.85 inHg Light air from east 3 mph
      Temperature Precip Pressure Wind  
Wednesday
06/27/2018
05:00 11:00 55°F   29.83 inHg Light breeze from east-northeast 4 mph
  11:00 17:00 84°F   29.85 inHg Light breeze from southwest 6 mph
  17:00 23:00 84°F   29.81 inHg Gentle breeze from south-southwest 8 mph
  23:00 05:00 66°F   29.86 inHg Light breeze from east 4 mph
      Temperature Precip Pressure Wind  
Thursday
06/28/2018
05:00 11:00 54°F   29.84 inHg Light air from east-northeast 3 mph
  11:00 17:00 82°F   29.85 inHg Light breeze from west-southwest 6 mph
  17:00 23:00 88°F   29.78 inHg Light breeze from west 7 mph
  23:00 05:00 68°F   29.82 inHg Light air from east-northeast 1 mph
      Temperature Precip Pressure Wind  
Friday
06/29/2018
05:00 11:00 55°F   29.79 inHg Light breeze from east-northeast 6 mph
  11:00 17:00 88°F   29.78 inHg Light breeze from west 7 mph
  17:00 23:00 91°F   29.73 inHg Gentle breeze from west-northwest 8 mph
  23:00 05:00 68°F   29.74 inHg Light breeze from east-northeast 4 mph
      Temperature Precip Pressure Wind  
Saturday
06/30/2018
05:00 11:00 61°F   29.73 inHg Gentle breeze from east-northeast 8 mph
  11:00 17:00 90°F   29.77 inHg Light breeze from west-southwest 6 mph
  17:00 23:00 93°F   29.72 inHg Light breeze from west-northwest 7 mph
  23:00 05:00 72°F   29.76 inHg Light air from east-northeast 3 mph
      Temperature Precip Pressure Wind  
Sunday
07/01/2018
05:00 11:00 68°F   29.77 inHg Light breeze from east 4 mph
  11:00 17:00 86°F   29.82 inHg Light breeze from southwest 6 mph
  17:00 23:00 86°F   29.79 inHg Light breeze from southwest 7 mph
  23:00 05:00 64°F   29.88 inHg Light breeze from southeast 6 mph
      Temperature Precip Pressure Wind  
Monday
07/02/2018
05:00 11:00 61°F   29.87 inHg Light breeze from south-southeast 4 mph
  11:00 17:00 75°F   29.91 inHg Light breeze from south-southwest 7 mph
  17:00 23:00 79°F   29.85 inHg Gentle breeze from southwest 8 mph
  23:00 05:00 63°F   29.88 inHg Light breeze from east-southeast 4 mph

NOAA Local Storm Report
RALPH   ( More )
DATE
06/18/2018
TIME
9:00 AM
COUNTY
DICKINSON
STATE
MI
GEOGRAPHIC
46.11N 87.78W
SOURCE
PUBLIC
HEAVY RAIN MEASURED AT 1.60 INCH
delayed report. 48 hour total. Relayed by wjmn tv3 meteorologist.
How Close Are We To this Month's Temperature Record ?
Updated Sunday, Jun 24, 2018- 2:00:01 AM

Current Temperature: 72.9°F

June's High: Temperature Record 95.1°F - Set on Sat, Jun 8, 2013 - 3:58:00 PM
We are currently 22.2°F Less than this Month's record High

June's Low: Temperature Record 40.8°F - Set on Tue, Jun 5, 2012 - 5:41:00 AM
We are currently 32.1°F More than this Month's record Low

Weather History For Sunday, June 24, 2018


On this Day - In Weather History ...
Data courtesy of weatherforyou.com
powered by Cumulus v1.9.3 (1059)
Ambient Weather VWS v14.00
Top Contact Website Map Copyright © 2007 - 2018 Foresthillweather.com Never base important decisions on this or any weather information obtained from the Internet